Location: Hackberry
(29.5783°N, 96.8797°W)
Time: 14:20:25
(UTC+00:00)

Transit 2A - Pass Details

Date: 07 November 2024
Orbit: 592 x 956 km, 66.7° (Epoch: 02 December)

Event Time Altitude Azimuth Distance (km) Brightness Sun altitude
Rises 12:03:39 0° 219° (SW) 3,519 9.2 -9.7°
Reaches altitude 10° 12:06:12 10° 224° (SW) 2,615 8.5 -9.1°
Maximum altitude 12:12:09 49° 298° (WNW) 1,211 6.7 -7.9°
Drops below altitude 10° 12:18:16 10° 13° (NNE) 2,685 8.8 -6.6°
Sets 12:20:56 0° 18° (NNE) 3,621 9.5 -6.0°
